小惑星A/2025 P1

A/2025 P1

English version
Home page
Updated on August 27, 2025

---------------------------------------------------------------------

・ プロフィール

発見日 2025年8月1日
発見光度 21.12等
発見者 Pan-STARRS 2 telescope (Haleakala)

・ 軌道要素

Epoch 2025 May 5.0 TT = JDT 2460800.5                                           
T 2025 Mar. 30.53056 TT                                 Veres                   
q   2.1757903            (2000.0)            P               Q                  
z  +0.0176327      Peri.  334.52448     +0.92117380     +0.28286845             
 +/-0.0000181      Node   342.41621     +0.07653832     -0.80503947             
e   0.9616350      Incl.  117.79139     -0.38155042     +0.52143733             
H   15.9                                                                        
From 41 observations 2025 Jan. 10-Aug. 18, mean residual 0".3.                  

・ 光度変化

        H = 15.9  G = 0.15

---------------------------------------------------------------------

軌道要素はM.P.E.C. 2025-Q30に掲載されたものです。
光度グラフはComet for Windowsで作成したものです。

---------------------------------------------------------------------

Copyright(C) Seiichi Yoshida (comet@aerith.net). All rights reserved.